Lid_Strength_Index
1 1 1 1 1 1 1 1 1 0 1 1 1 1 1 1 0 1 1 1 1 1 1 2 1 1 1 1 1 2 3 3 5 4 3 2 2 2 2 3 3 4 4
1 1 1 1 1 1 1 1 0 0 0 0 0 1 1 1 1 1 1 1 1 1 1 1 2 1 1 2 3 2 3 4 5 7 4 4 4 5 5 5 5 4 4
1 1 1 1 1 1 0 0 0 1 1 1 1 1 1 1 2 2 2 2 2 2 2 2 3 3 4 4 4 5 6 5 6 6 7 6 6 6 6 5 5 4 3
1 1 1 1 1 1 1 1 1 1 1 1 1 2 4 6 6 5 4 3 2 2 2 3 4 5 6 7 6 6 6 7 7 7 8 8 7 6 6 7 7 6 6
1 1 2 1 1 1 1 1 1 1 1 1 1 4 6 8 9 8 7 5 3 3 2 3 5 6 6 6 7 7 7 8 8 8 8 8 8 7 7 6 7 7 6
1 2 1 1 1 1 1 1 1 1 1 1 4 6 8 9 9 9 9 8 4 3 4 6 6 7 6 6 5 6 7 8 8 8 8 8 7 6 6 6 7 8 8
1 1 1 1 2 1 1 1 1 1 2 2 6 8 9 10 10 10 9 7 4 6 7 6 7 6 7 7 7 7 6 7 7 7 8 7 6 5 6 6 7 7 8
2 2 2 2 2 1 1 2 2 3 2 4 7 8 9 10 11 11 10 6 5 5 6 6 6 7 8 9 9 8 7 7 7 7 6 6 6 6 6 6 7 7 7
2 2 2 1 2 2 2 2 2 3 4 7 6 7 9 11 11 10 10 7 7 7 6 7 7 8 9 9 9 8 8 7 6 6 6 6 6 6 5 6 8 8 8
2 2 1 1 2 2 2 2 1 3 3 4 6 7 8 10 11 10 10 8 8 8 7 8 9 9 9 9 9 8 9 9 8 7 7 6 5 4 4 5 6 8 8
1 1 1 1 2 1 1 1 2 3 4 4 7 8 9 9 10 10 9 7 8 8 9 9 9 8 9 9 8 8 9 8 7 7 7 6 7 6 5 5 5 6 7
1 2 4 4 4 4 4 4 5 5 5 5 8 8 8 8 8 8 8 8 8 9 9 9 9 9 9 8 8 9 8 7 7 7 7 8 8 7 6 6 5 5 4
3 5 6 7 7 7 7 6 7 7 5 6 6 7 7 7 7 8 8 8 8 8 8 8 8 9 8 8 8 8 8 7 8 8 8 8 8 7 7 6 6 5 6
6 6 7 9 9 9 7 8 9 9 7 6 6 7 7 8 9 9 8 8 8 8 7 8 8 8 8 8 8 8 7 7 7 8 8 7 7 6 6 5 5 6 7
6 7 8 9 9 9 10 9 9 9 9 8 8 8 9 10 10 10 9 9 9 9 8 8 9 9 10 9 8 8 8 8 9 8 8 7 7 6 5 5 5 6 7
5 7 8 7 7 7 7 8 9 9 9 10 10 9 9 9 9 9 9 9 9 8 7 8 9 9 10 9 9 9 8 8 7 7 7 7 7 7 6 6 6 7 8
6 6 5 6 3 4 6 7 8 10 9 10 10 10 9 9 9 9 10 9 9 9 9 10 10 10 9 9 9 8 8 7 7 7 7 7 7 7 7 7 8 8 9
6 7 3 3 3 4 4 5 7 7 8 8 9 8 9 9 9 9 9 8 8 8 9 10 10 9 9 9 9 8 8 8 8 8 7 6 7 7 8 8 8 9 9
4 2 2 2 3 4 4 7 7 7 7 7 6 6 7 8 9 9 8 7 8 8 8 8 8 8 9 9 9 9 9 9 9 7 7 7 7 7 8 8 9 11 11
3 5 6 3 3 4 6 7 7 7 7 6 7 7 6 7 7 7 6 6 6 7 7 7 6 8 8 9 9 9 8 8 7 7 7 7 7 8 8 8 8 9 9
2 1 9 4 4 6 6 6 7 7 7 7 6 8 12 7 7 7 7 6 6 6 6 6 6 7 7 8 8 8 8 7 7 7 7 7 7 8 7 8 8 8 8
3 2 3 4 5 6 6 6 7 7 7 6 6 7 11 6 6 6 6 6 5 5 5 5 5 5 5 6 7 6 7 7 6 6 6 6 7 6 6 7 7 7 7
3 3 4 5 6 8 7 6 7 7 6 6 7 7 6 6 6 6 5 5 5 5 5 4 4 4 4 4 4 6 6 7 7 6 6 6 6 6 6 6 6 6 7
3 4 4 5 6 6 7 7 7 9 6 6 7 6 6 6 6 7 5 5 5 5 3 3 3 4 5 4 4 4 6 8 6 5 4 4 4 6 4 4 5 5 6
3 4 5 6 6 7 7 7 7 7 6 6 6 6 5 5 6 7 5 4 4 4 3 3 3 4 3 4 5 6 11 13 10 12 6 4 3 3 4 5 5 5 5
4 5 5 5 6 6 7 7 7 7 6 6 5 5 5 5 5 5 5 5 5 4 4 3 3 4 4 5 7 11 13 13 10 12 7 3 3 3 4 4 4 5 5